#timestamp,LO_Frequency,Hit,StdDev 
1522141215.4,286046999.7,N
1522141235.3,286047001.9,N
1522141255.1,286046999.7,N
1522141275.9,286046999.9,N
1522141295.7,286047000.6,N
1522141315.5,286047002.1,N
1522141335.4,286047001.6,N
1522141355.2,286047002.8,N
1522141375.1,286047002.8,N
1522141376.0,286047002.8,N
1522141395.8,286047002.8,N
1522141415.6,286046999.7,N
1522141435.5,286047001.1,N
1522141455.3,286047002.5,N
1522141475.1,286047002.6,N
1522141495.9,286047004.4,Y
1522141515.7,286047002.4,P
1522141535.6,286047000.4,N
1522141555.4,286047000.6,N
1522141575.2,286046999.7,N
1522141595.1,286047002.2,N
1522141596.0,286047002.2,N
1522141615.8,286047003.8,Y
1522141635.7,286047000.3,P
1522141655.5,286047002.4,P
1522141675.3,286047002.3,N
1522141695.2,286047001.0,N
1522141715.0,286047000.7,N
1522141715.9,286047000.7,N
1522141735.7,286046999.8,N
1522141755.6,286047000.0,N
1522141775.4,286047004.4,Y
1522141795.3,286047001.6,P
1522141815.1,286047000.6,N
1522141816.0,286047000.6,N
1522141835.8,286046998.6,Y
1522141855.7,286046999.2,P
1522141875.5,286046996.8,P
1522141895.4,286046996.9,N
1522141915.2,286046997.5,N
1522141935.0,286046997.1,N
1522141935.9,286046997.1,N
1522141955.8,286046997.5,N
1522141975.6,286046997.2,N
1522141995.4,286046996.6,N
1522142015.3,286047000.8,N
1522142035.1,286046999.3,N
1522142055.9,286046998.7,N
1522142075.7,286046999.2,N
1522142095.5,286046999.5,N
1522142115.4,286046997.5,N
1522142135.2,286046997.3,N
1522142155.1,286046997.6,N
1522142156.0,286046997.6,N
1522142175.8,286046998.0,N
1522142195.6,286046997.1,N
1522142215.5,286046997.4,N
1522142235.3,286047001.2,N
1522142255.1,286046996.8,N
1522142275.9,286046997.1,N
1522142295.7,286046999.1,N
1522142315.6,286046999.1,N
1522142335.4,286046999.2,N
1522142355.2,286046997.3,N
1522142375.1,286046996.9,N
1522142376.0,286046996.9,N
1522142395.8,286046995.0,Y
1522142415.7,286046999.5,P
1522142435.5,286046998.8,N
1522142455.3,286046998.3,N
1522142475.2,286046998.6,N
1522142495.9,286046998.4,Y
1522142515.7,286047002.7,P
1522142535.6,286047001.6,N
1522142555.4,286047002.9,N
1522142575.3,286047003.2,N
1522142595.1,286047001.7,N
1522142596.0,286047001.7,N
1522142615.8,286047004.4,Y
1522142635.7,286046999.5,P
1522142655.5,286046997.2,N
1522142675.4,286046999.3,N
1522142695.2,286046999.5,N
1522142715.0,286046997.3,N
1522142715.9,286046997.3,N
1522142735.8,286046994.9,Y
1522142755.6,286046999.2,P
1522142775.4,286047001.2,P
1522142795.3,286046998.3,N
1522142815.1,286047001.2,N
1522142835.9,286046999.4,N
1522142855.7,286047000.7,N
1522142875.5,286046998.9,N
1522142895.4,286047000.8,N
1522142915.2,286046998.2,N
1522142935.0,286047000.3,N
1522142935.9,286047000.3,N
1522142955.8,286046998.7,N
1522142975.6,286046997.0,N
1522142995.5,286046997.0,N
1522143015.3,286047001.0,N
1522143035.1,286046996.5,N
1522143055.9,286047000.3,N
1522143075.7,286046998.3,N
1522143095.5,286046998.1,N
1522143115.4,286047001.1,N
1522143135.2,286047000.9,N
1522143155.1,286047001.0,N
1522143156.0,286047001.0,N
1522143175.8,286047000.7,N
1522143195.6,286047000.4,N
1522143215.5,286047002.1,N
1522143235.3,286047002.6,N
1522143255.2,286047000.2,N
1522143275.9,286047002.7,N
1522143295.7,286047002.7,N
1522143315.6,286047002.2,N
1522143335.4,286046999.8,N
1522143355.3,286047000.1,N
1522143375.1,286047000.0,N
1522143376.0,286047000.0,N
1522143395.8,286047000.3,N
1522143415.7,286047001.8,N
1522143435.5,286047001.8,N
1522143455.3,286047004.3,N
1522143475.2,286047003.7,N
1522143495.0,286047001.9,N
1522143495.9,286047001.9,N
1522143515.8,286047001.6,N
1522143535.6,286047002.1,N
1522143555.4,286047002.0,N
1522143575.3,286047001.5,N
1522143595.1,286047001.6,N
1522143615.9,286047001.3,N
1522143635.7,286047002.2,N
1522143655.5,286047002.6,N
1522143675.4,286047004.4,Y
1522143695.2,286046999.4,P
1522143715.1,286046999.9,N
1522143716.0,286046999.9,N
1522143735.8,286047001.0,N
1522143755.6,286046999.1,N
1522143775.5,286046999.2,N
1522143795.3,286047000.9,N
1522143815.1,286047000.0,N
1522143835.9,286047002.5,Y
1522143855.7,286047002.6,P
1522143875.6,286047000.6,N
1522143895.4,286047002.7,N
1522143915.2,286047004.2,Y
1522143935.1,286047000.2,P
1522143936.0,286047000.2,N
1522143955.8,286046998.2,N
1522143975.7,286046998.5,N
1522143995.5,286046998.3,N
1522144015.3,286046999.0,N
1522144035.2,286047000.5,N
1522144055.9,286046998.7,N
1522144075.7,286046998.9,N
1522144095.6,286046999.4,N
1522144115.4,286046996.8,Y
1522144135.3,286046997.2,P
1522144155.1,286046996.8,N
1522144156.0,286046996.8,N
1522144175.8,286046997.8,N
1522144195.7,286046997.2,N
1522144215.5,286046996.7,Y
1522144235.3,286047000.1,P
1522144255.2,286047002.7,N
1522144275.0,286046999.8,N
1522144275.9,286046999.8,N
1522144295.8,286046999.9,N
1522144315.6,286047000.9,N
1522144335.4,286046999.0,N
1522144355.3,286046999.5,N
1522144375.1,286046999.3,N
1522144395.9,286047001.0,N
1522144415.7,286046998.4,N
1522144435.5,286047001.2,N
1522144455.4,286047000.8,N
1522144475.2,286046998.2,N
1522144495.1,286046999.3,N
1522144496.0,286046999.3,N
1522144515.8,286046999.1,N
1522144535.6,286046998.7,N
1522144555.5,286047000.6,N
1522144575.3,286047001.8,N
1522144595.1,286047002.4,N
1522144615.9,286046999.8,N
1522144635.7,286046999.8,N
1522144655.6,286047000.1,N
1522144675.4,286047002.0,N
1522144695.2,286047001.5,N
1522144715.1,286047001.8,N
1522144716.0,286047001.8,N
1522144735.8,286047002.4,N
1522144755.7,286047002.2,N
1522144775.5,286047002.8,N
1522144795.3,286047002.5,N
